Location: Anjeux
(47.8815°N, 6.2076°E)
Time: 18:40:08
(UTC+00:00)

Cosmos 1933 Rocket - Visible Passes

Search period start: 22 June 2021 00:00
Search period end: 02 July 2021 00:00
Orbit: 607 x 630 km, 82.5° (Epoch: 21 June)

Date Brightness Start Highest point End Pass type
(mag) Time Alt. Az. Time Alt. Az. Time Alt. Az.
26 Jun 6.4 02:54:43 10° ESE 02:57:03 14° E 02:59:23 10° NE visible
30 Jun 6.3 02:25:12 10° ESE 02:27:38 15° E 02:30:05 10° NE visible
01 Jul 5.7 02:40:54 10° SE 02:44:29 25° E 02:48:05 10° NNE visible
